Temperature
14 15 15 15 15 15 14 14 13 14 14 15 15 14 14 13 13 13 13 12 11 11 10 10 10 9 9 9 8 8 8 8 8 7 7 7 7 6 6 6 6 6 5 5
13 14 14 14 14 14 14 14 14 14 14 15 14 14 13 12 12 12 12 11 11 10 10 9 9 8 8 8 8 7 7 7 7 6 6 6 6 6 6 6 5 5 4 4
11 13 12 12 14 14 14 15 14 13 14 13 12 12 12 12 12 11 11 10 10 9 9 8 8 8 7 7 7 7 6 6 6 5 5 5 5 5 5 5 4 4 4 3
10 11 9 12 15 15 15 14 14 13 13 12 12 12 12 12 11 10 10 9 9 8 8 8 7 7 7 6 6 6 5 5 5 4 4 4 4 4 3 3 3 3 3 2
10 9 10 13 14 14 13 13 13 13 12 12 12 11 11 11 10 9 9 8 8 8 7 7 7 6 6 6 5 5 5 4 4 3 3 3 3 3 2 2 2 2 2 1
9 9 8 13 12 13 12 11 12 12 11 11 10 7 8 9 9 8 8 7 7 7 6 6 6 5 5 5 4 4 4 3 3 3 2 2 1 1 1 1 1 1 1 1
8 8 10 13 12 12 11 11 12 12 11 10 9 8 8 8 8 7 7 6 6 6 6 6 5 5 4 4 4 3 3 2 2 2 1 1 1 0 0 0 -0 -0 -0 -0
8 8 9 12 12 11 11 12 12 11 10 9 8 8 7 7 7 6 6 6 5 5 5 5 5 4 3 3 3 2 2 1 1 1 0 -0 -0 -0 -0 -1 -1 -1 -1 -1
10 10 13 13 13 12 12 11 10 9 8 8 7 7 6 6 6 5 5 5 4 4 4 4 4 3 3 2 2 1 1 0 0 -0 -1 -1 -1 -1 -1 -1 -1 -2 -2 -2
10 11 12 12 12 11 10 9 8 8 7 7 6 6 5 5 5 4 4 4 4 4 3 3 3 2 2 1 1 0 -0 -0 -1 -1 -1 -1 -1 -2 -2 -2 -2 -2 -2 -2
9 10 11 11 10 9 8 8 7 7 6 6 5 5 4 4 4 4 4 3 3 3 3 2 2 1 1 0 -0 -1 -1 -1 -1 -2 -2 -2 -2 -2 -2 -2 -2 -3 -3 -3
8 9 8 8 8 7 7 6 6 5 5 5 4 4 4 3 3 3 3 3 3 2 2 1 1 0 -0 -1 -1 -1 -2 -2 -2 -2 -2 -2 -2 -2 -2 -2 -3 -3 -3 -3
8 8 7 7 6 6 6 5 5 4 4 4 3 3 3 3 3 2 2 2 2 1 1 0 -0 -1 -1 -1 -2 -2 -3 -3 -3 -3 -3 -3 -3 -3 -3 -3 -3 -3 -3 -3
7 6 6 5 5 5 5 4 4 4 3 3 3 3 2 2 2 2 2 1 1 0 0 -0 -1 -1 -1 -2 -3 -3 -3 -3 -3 -3 -3 -3 -3 -3 -3 -3 -3 -3 -3 -3
6 5 5 5 4 4 4 4 3 3 3 3 2 2 2 1 1 1 1 0 0 -0 -0 -1 -1 -1 -2 -3 -3 -3 -4 -4 -4 -4 -4 -3 -3 -3 -3 -3 -3 -4 -4 -4
5 4 4 4 4 4 3 3 3 2 2 2 2 1 1 1 0 0 -0 -0 -1 -1 -1 -2 -2 -2 -3 -3 -4 -4 -4 -4 -4 -4 -4 -4 -3 -3 -3 -3 -4 -4 -4 -4
4 4 4 3 3 3 3 2 2 2 1 1 1 1 0 -0 -0 -1 -1 -1 -2 -2 -2 -2 -3 -3 -4 -4 -4 -5 -5 -5 -4 -4 -4 -4 -3 -3 -4 -4 -4 -4 -5 -5
4 4 3 3 3 2 2 2 1 1 1 0 0 -0 -0 -1 -1 -1 -2 -2 -2 -2 -2 -3 -4 -4 -4 -4 -5 -5 -5 -5 -5 -4 -4 -4 -4 -4 -4 -4 -4 -5 -5 -5
3 3 3 3 2 2 1 1 1 0 0 -0 -0 -1 -1 -1 -2 -2 -2 -3 -3 -3 -3 -3 -4 -5 -5 -5 -5 -5 -5 -5 -5 -4 -4 -4 -4 -4 -4 -4 -5 -5 -5 -5
3 3 2 2 2 1 1 1 0 0 -0 -1 -1 -1 -1 -2 -2 -2 -3 -3 -3 -3 -4 -4 -5 -5 -5 -6 -6 -6 -5 -5 -5 -5 -4 -4 -4 -4 -4 -5 -5 -5 -5 -6
2 2 2 2 1 1 1 0 -0 -0 -0 -1 -1 -1 -2 -2 -2 -3 -4 -4 -3 -4 -5 -5 -5 -6 -6 -6 -6 -6 -5 -5 -5 -5 -5 -5 -4 -5 -5 -5 -5 -6 -6 -6
2 2 1 1 1 1 0 0 -0 -0 -1 -1 -1 -2 -2 -3 -3 -3 -4 -4 -4 -5 -5 -6 -6 -6 -6 -6 -6 -6 -5 -5 -5 -5 -5 -5 -5 -5 -5 -5 -6 -6 -6 -6
1 1 1 1 0 0 -0 -0 -0 -1 -1 -1 -2 -2 -2 -3 -4 -4 -5 -4 -5 -5 -6 -6 -6 -6 -6 -6 -6 -6 -5 -5 -5 -5 -5 -5 -5 -5 -5 -6 -6 -6 -7 -7
1 1 1 0 -0 -1 -1 -1 -1 -1 -2 -2 -2 -2 -3 -4 -4 -4 -5 -5 -5 -6 -6 -6 -7 -6 -6 -6 -6 -6 -5 -5 -5 -5 -5 -5 -5 -5 -6 -6 -7 -7 -7 -7
1 0 -0 -0 -1 -1 -1 -1 -2 -2 -2 -2 -3 -3 -4 -4 -5 -5 -5 -6 -6 -6 -7 -7 -7 -7 -6 -6 -6 -6 -5 -5 -5 -5 -5 -5 -6 -6 -6 -7 -7 -7 -7 -7
-0 -0 -1 -1 -1 -1 -2 -2 -2 -2 -3 -3 -3 -4 -4 -5 -5 -6 -6 -6 -7 -7 -7 -7 -7 -7 -7 -6 -6 -6 -5 -5 -5 -5 -6 -6 -6 -7 -7 -7 -7 -7 -7 -7
-1 -1 -1 -2 -2 -2 -2 -2 -3 -3 -3 -4 -4 -4 -5 -5 -6 -6 -7 -7 -7 -8 -8 -8 -8 -7 -7 -6 -6 -6 -6 -6 -6 -6 -6 -6 -7 -7 -7 -7 -7 -7 -7 -7
Wind_Speed
12 13 13 15 15 13 14 14 17 18 19 18 11 5 6 7 7 7 6 6 6 7 8 8 9 9 9 9 9 8 7 8 9 8 8 8 8 9 9 10 11 11 11 12
11 12 13 18 19 17 17 17 17 18 18 8 3 5 7 8 9 9 7 7 8 9 10 9 10 10 9 9 9 8 9 9 9 8 8 8 9 9 10 10 10 10 11 12
6 8 12 13 12 11 8 7 8 10 7 5 5 6 7 9 10 8 8 9 10 10 9 9 9 10 10 10 9 9 10 10 10 9 8 9 9 10 10 11 10 11 12 12
5 6 9 9 5 3 4 7 8 8 3 5 5 5 7 8 6 9 10 11 10 9 8 9 9 10 10 9 10 10 11 11 10 9 9 10 10 10 11 10 10 10 11 12
4 6 10 11 7 3 2 6 5 3 5 6 7 8 7 6 9 10 10 10 9 8 8 9 9 10 10 10 10 11 11 11 10 9 10 10 11 11 10 9 10 10 9 10
5 5 7 6 3 4 3 4 6 6 6 8 9 9 7 9 11 11 11 9 8 8 8 9 9 9 10 11 11 11 11 11 10 10 10 11 12 11 9 9 10 9 10 10
7 6 8 5 4 2 2 2 3 6 7 7 6 7 9 11 11 10 10 9 9 9 8 9 10 10 11 12 12 12 11 11 11 11 11 12 11 10 10 9 9 9 10 9
6 7 8 3 3 2 4 6 7 7 7 8 8 10 11 11 10 10 9 9 9 8 9 10 10 11 12 12 12 11 11 11 12 11 11 11 11 11 10 9 10 10 10 10
5 7 3 1 4 6 7 8 7 7 8 9 10 10 11 10 9 9 8 8 8 9 10 11 10 10 13 13 12 12 12 12 11 11 11 11 11 11 10 9 9 9 9 10
7 7 8 10 10 9 8 8 9 9 9 9 10 10 9 8 8 8 8 9 9 10 12 13 12 11 12 13 13 13 12 12 11 11 12 11 9 8 9 9 10 10 10 10
10 11 11 8 8 10 11 10 11 10 9 8 8 9 8 7 8 8 8 8 9 10 13 14 13 13 13 13 13 13 12 11 11 11 12 12 10 10 11 10 12 12 10 9
12 10 10 10 10 11 11 10 9 9 9 8 7 8 8 8 7 8 9 10 11 12 13 15 14 14 13 12 12 12 11 11 10 10 11 11 12 12 14 16 22 22 21 18
8 8 8 10 10 9 9 9 8 8 8 8 7 8 8 8 8 9 11 12 13 14 15 16 15 15 13 11 11 11 12 13 11 11 12 12 12 13 14 14 18 20 20 20
7 7 8 8 9 9 9 8 7 8 8 8 7 7 8 9 10 12 13 13 14 16 17 16 15 14 12 12 12 12 12 15 15 12 12 12 12 12 12 13 14 10 13 17
6 6 8 9 9 8 7 6 7 7 7 8 7 8 9 11 12 13 14 14 15 15 14 14 16 17 14 13 12 12 12 11 12 12 12 12 12 12 12 12 12 12 9 10
7 7 8 8 8 7 7 7 7 8 8 8 9 10 11 12 13 15 14 14 13 15 15 15 16 16 14 13 12 11 11 20 19 14 13 13 12 12 12 11 11 11 10 8
5 6 6 7 8 8 7 7 8 9 9 10 11 12 12 13 14 14 14 12 13 16 15 15 16 14 12 11 11 11 11 14 20 16 12 12 12 12 12 11 10 10 9 9
6 7 7 8 8 9 9 9 9 10 11 12 13 13 12 13 15 16 16 15 15 15 15 14 14 13 11 12 11 11 11 12 12 13 13 12 13 11 11 11 11 11 8 8
7 7 8 8 8 8 9 10 11 11 11 12 12 13 13 13 14 15 14 15 17 19 16 12 21 16 12 14 17 10 11 13 13 13 12 15 15 11 10 10 10 9 8 6
8 8 9 9 9 9 10 11 12 12 11 11 12 13 14 14 13 14 15 15 14 13 13 17 16 12 11 13 18 11 12 13 14 14 12 11 11 11 10 9 8 7 6 5
9 10 10 10 11 11 10 11 11 13 12 11 12 14 15 15 13 13 14 16 14 12 14 21 13 10 11 15 20 12 13 13 13 13 12 11 11 10 9 8 7 6 5 4
9 10 11 11 11 11 10 9 10 12 13 12 13 13 14 15 13 12 12 13 14 19 15 11 10 17 21 24 14 13 13 13 12 11 11 10 10 9 8 7 6 5 4 3
10 10 11 11 11 12 12 10 11 12 13 13 13 14 14 14 12 13 15 11 10 19 16 11 19 28 30 18 12 12 13 13 12 11 11 10 9 8 7 6 5 4 3 2
11 11 11 11 11 12 14 14 12 11 12 12 12 13 13 12 11 9 10 17 22 24 14 18 27 29 27 13 11 12 12 11 11 11 10 9 8 7 6 5 4 3 1 2
11 12 11 11 11 11 13 12 10 10 11 10 11 11 9 8 10 11 10 12 19 21 13 18 26 26 17 12 12 12 12 11 12 11 9 8 7 6 5 4 3 1 1 2
11 11 11 11 10 10 9 9 9 9 8 10 9 8 8 7 9 10 10 12 14 19 15 12 14 17 12 12 13 13 12 12 11 9 8 7 7 5 4 3 2 1 1 2
11 10 9 8 8 8 8 8 9 9 8 9 11 9 8 8 9 10 11 11 11 11 11 11 12 12 12 13 13 12 11 10 8 7 7 6 5 4 3 2 1 1 2 3
Wind_Direction
271 283 290 287 282 273 264 262 268 276 282 293 311 14 28 13 357 341 331 338 340 331 322 319 318 316 316 315 313 311 305 295 284 276 273 274 274 272 267 259 253 247 244 242
277 280 283 280 272 265 263 260 262 272 279 291 50 39 16 357 333 317 316 332 333 326 321 319 318 316 316 312 310 311 305 295 289 285 280 277 274 272 270 265 258 251 246 245
277 293 300 275 263 252 242 247 264 275 295 20 27 20 355 324 307 315 334 336 327 320 318 318 316 315 314 308 310 311 304 297 292 286 281 277 275 273 269 264 257 252 247 244
284 300 251 250 292 273 266 281 289 290 342 31 20 346 312 299 333 346 335 325 318 316 317 314 313 314 312 313 313 309 303 299 297 293 288 284 279 275 272 267 262 257 251 246
252 266 277 275 283 299 300 290 302 334 17 359 339 323 306 336 354 332 321 316 313 315 317 317 315 314 315 311 307 305 302 299 299 297 294 291 286 281 277 273 271 265 259 251
223 239 255 282 72 56 21 295 36 28 351 335 340 321 306 337 332 323 320 318 321 323 320 314 310 314 312 305 304 302 300 301 302 301 298 292 287 285 283 278 275 273 267 258
233 246 262 280 130 120 240 284 6 338 330 334 321 296 308 324 320 315 316 318 321 321 314 308 310 312 305 302 299 297 300 303 302 298 294 292 289 285 284 281 280 278 275 268
203 222 253 149 137 237 293 331 333 342 347 334 317 312 315 314 315 319 318 316 319 315 307 305 307 307 302 299 298 300 302 301 299 296 296 297 292 289 285 284 284 283 281 278
216 227 275 94 317 316 333 335 346 347 337 326 314 311 313 312 314 312 310 311 310 307 304 303 303 302 302 302 305 305 302 300 299 298 298 296 293 292 291 287 283 283 281 283
280 281 309 320 320 333 353 352 343 335 328 322 312 312 312 311 309 307 305 305 306 306 304 302 302 302 302 306 307 305 303 302 301 302 301 296 290 287 288 287 284 283 283 283
274 283 295 299 334 347 343 339 331 327 324 319 316 312 308 303 299 299 301 300 302 300 300 301 306 307 305 305 306 304 302 301 301 298 298 297 291 287 286 278 280 286 280 274
274 299 310 316 333 336 331 326 325 324 320 317 309 300 298 293 293 298 300 301 303 301 302 304 305 303 302 302 304 305 305 303 301 299 298 295 295 293 283 282 290 290 286 281
297 324 321 319 323 327 320 320 321 317 309 304 299 293 295 295 298 299 300 301 302 301 300 300 300 300 302 307 309 306 302 301 300 297 297 296 295 296 298 297 291 289 288 287
332 333 315 315 314 315 311 310 307 298 291 286 290 296 299 297 295 295 295 296 297 297 297 297 299 302 307 308 304 297 297 299 299 295 294 294 293 293 293 296 299 294 289 287
321 319 304 303 303 306 310 309 305 297 295 297 301 300 297 296 295 294 294 295 294 294 297 301 303 303 303 300 297 295 297 297 294 292 291 290 290 290 290 290 292 293 291 286
316 308 301 303 307 313 317 313 304 298 299 298 298 294 292 289 290 292 293 295 301 304 302 299 297 297 298 295 294 296 296 298 300 296 294 292 291 292 293 293 293 292 291 287
296 297 303 305 305 304 302 298 292 291 293 293 292 292 292 293 294 296 300 302 298 295 295 294 295 294 293 292 294 297 296 297 299 297 293 293 294 294 294 294 293 291 286 281
258 266 274 281 287 293 296 294 291 290 289 289 290 291 292 297 300 301 301 302 301 298 296 293 293 295 294 295 295 295 295 295 295 295 296 296 296 293 292 291 289 288 287 285
265 270 274 278 279 283 286 288 287 285 285 288 289 291 291 292 293 296 301 304 304 303 301 295 302 305 298 299 304 296 296 297 298 297 296 297 298 294 292 291 288 284 283 278
271 274 276 278 279 277 278 280 282 285 285 287 290 292 294 293 293 296 298 296 292 290 294 300 303 299 298 300 306 299 297 298 298 297 296 294 295 296 294 291 288 286 282 275
267 272 274 274 274 271 270 276 283 287 288 288 288 290 291 293 293 294 297 299 296 294 299 305 308 304 304 306 307 302 299 298 297 296 296 296 297 296 295 292 289 286 280 272
266 269 270 272 276 279 277 277 281 287 292 291 287 287 290 293 294 291 284 289 297 302 308 304 303 306 312 312 306 302 300 299 298 296 296 296 297 298 297 293 289 284 275 260
271 273 275 277 278 282 286 285 283 283 284 284 286 287 287 287 290 294 298 296 298 305 310 303 309 312 314 315 306 303 301 299 298 298 298 297 296 296 295 293 289 283 271 235
271 272 272 273 276 282 284 283 277 274 273 277 278 276 279 287 288 281 283 301 310 309 308 307 313 314 317 314 306 303 300 298 297 297 296 297 297 297 295 294 289 278 251 194
266 268 269 270 272 274 275 276 278 277 276 277 275 273 273 274 285 296 298 301 307 311 308 311 313 315 315 306 305 303 301 298 299 300 301 305 305 301 297 294 286 266 194 165
267 268 267 262 263 269 271 273 275 276 278 284 285 283 283 284 288 295 298 299 300 308 311 308 309 310 309 307 306 304 303 302 303 306 308 306 302 300 299 295 274 210 157 146
269 268 269 269 265 261 262 264 269 274 276 282 289 289 288 292 293 296 298 300 303 303 305 307 308 307 308 309 308 307 305 304 305 306 305 302 300 297 292 279 227 146 139 139
Height
1505 1500 1499 1498 1496 1495 1497 1495 1496 1486 1482 1475 1473 1473 1472 1472 1472 1471 1469 1468 1466 1464 1461 1459 1455 1452 1448 1444 1439 1435 1430 1426 1421 1417 1412 1408 1404 1400 1396 1392 1389 1386 1383 1380
1505 1500 1497 1494 1488 1487 1486 1484 1482 1480 1476 1471 1470 1471 1471 1471 1470 1469 1467 1465 1463 1460 1457 1454 1450 1446 1442 1438 1434 1429 1424 1419 1414 1410 1405 1401 1396 1392 1388 1384 1380 1377 1373 1371
1509 1501 1499 1494 1479 1476 1476 1473 1475 1477 1473 1469 1470 1471 1471 1471 1469 1467 1464 1462 1459 1457 1453 1449 1446 1441 1437 1432 1428 1423 1418 1413 1408 1403 1398 1393 1389 1384 1379 1375 1371 1367 1364 1361
1509 1506 1510 1485 1469 1469 1470 1471 1471 1470 1470 1470 1471 1471 1471 1469 1467 1464 1462 1459 1456 1452 1448 1445 1441 1436 1432 1427 1422 1417 1412 1407 1402 1397 1391 1386 1381 1376 1371 1367 1363 1359 1355 1352
1509 1509 1496 1479 1470 1469 1471 1471 1469 1469 1469 1470 1469 1468 1468 1467 1464 1462 1459 1455 1452 1448 1444 1440 1436 1431 1426 1421 1416 1411 1406 1401 1396 1390 1384 1379 1374 1369 1364 1360 1355 1351 1348 1344
1506 1508 1503 1478 1473 1470 1474 1476 1471 1470 1470 1469 1468 1470 1466 1464 1461 1458 1455 1451 1447 1443 1439 1435 1431 1426 1421 1415 1410 1405 1400 1394 1389 1383 1378 1372 1367 1362 1357 1353 1348 1344 1339 1336
1505 1503 1489 1473 1472 1472 1481 1477 1472 1470 1469 1468 1467 1467 1462 1459 1456 1454 1450 1446 1442 1438 1434 1430 1426 1421 1415 1410 1404 1399 1393 1387 1382 1376 1371 1365 1360 1355 1350 1345 1341 1336 1332 1328
1497 1500 1491 1472 1472 1474 1474 1469 1468 1466 1466 1465 1463 1460 1458 1455 1451 1448 1445 1441 1438 1434 1430 1425 1421 1415 1409 1403 1398 1392 1386 1380 1374 1369 1364 1358 1353 1348 1343 1339 1333 1328 1324 1319
1481 1481 1471 1470 1470 1470 1469 1467 1466 1464 1463 1461 1458 1455 1453 1450 1447 1444 1441 1437 1434 1429 1424 1420 1415 1410 1403 1397 1391 1385 1378 1372 1367 1361 1356 1352 1347 1341 1336 1332 1327 1321 1317 1311
1476 1470 1468 1468 1468 1468 1467 1465 1463 1462 1460 1457 1454 1451 1448 1445 1442 1439 1436 1433 1429 1424 1418 1413 1408 1403 1397 1390 1384 1377 1371 1365 1360 1354 1349 1344 1340 1335 1330 1325 1320 1315 1310 1305
1473 1470 1468 1467 1467 1465 1463 1461 1459 1457 1455 1453 1450 1447 1444 1441 1438 1436 1432 1428 1424 1419 1412 1406 1401 1395 1390 1384 1377 1370 1364 1358 1353 1347 1342 1337 1332 1329 1324 1319 1315 1310 1304 1300
1471 1470 1468 1466 1465 1462 1460 1458 1455 1453 1450 1448 1446 1443 1440 1437 1434 1431 1427 1423 1418 1412 1406 1399 1393 1387 1382 1377 1371 1364 1357 1351 1346 1340 1335 1330 1325 1320 1316 1313 1307 1303 1299 1294
1468 1466 1465 1463 1461 1460 1457 1454 1452 1449 1446 1444 1442 1439 1436 1433 1430 1426 1421 1416 1411 1405 1398 1392 1385 1380 1375 1369 1363 1357 1351 1345 1339 1334 1329 1323 1318 1313 1307 1303 1300 1296 1291 1287
1465 1463 1461 1460 1458 1456 1453 1450 1447 1445 1443 1440 1438 1435 1432 1428 1424 1420 1415 1410 1404 1397 1391 1385 1379 1373 1368 1362 1355 1350 1344 1338 1333 1327 1322 1317 1312 1307 1302 1296 1290 1286 1283 1280
1462 1461 1459 1457 1454 1452 1449 1446 1444 1441 1439 1436 1434 1431 1427 1423 1418 1412 1407 1402 1396 1390 1384 1378 1371 1365 1360 1354 1348 1342 1337 1331 1325 1320 1316 1311 1306 1301 1296 1290 1285 1279 1275 1272
1458 1456 1455 1453 1451 1448 1446 1443 1441 1438 1435 1432 1429 1425 1421 1416 1410 1405 1400 1395 1389 1382 1375 1369 1362 1356 1352 1346 1340 1334 1329 1324 1319 1314 1309 1304 1299 1294 1289 1284 1279 1274 1269 1266
1454 1452 1451 1449 1447 1445 1443 1440 1438 1434 1431 1427 1423 1418 1413 1408 1402 1396 1392 1387 1381 1374 1367 1361 1354 1349 1344 1339 1333 1327 1321 1316 1311 1307 1302 1297 1292 1287 1282 1277 1272 1268 1264 1260
1451 1449 1448 1446 1444 1441 1438 1436 1433 1429 1425 1421 1416 1411 1406 1401 1395 1389 1383 1377 1371 1364 1358 1353 1347 1341 1336 1331 1326 1320 1314 1309 1305 1300 1295 1290 1285 1280 1276 1271 1266 1262 1258 1255
1447 1446 1444 1442 1439 1437 1433 1430 1426 1423 1419 1415 1410 1404 1399 1394 1388 1382 1376 1369 1362 1354 1348 1345 1340 1334 1329 1324 1319 1313 1308 1303 1298 1293 1288 1283 1279 1274 1269 1265 1260 1256 1253 1250
1443 1441 1439 1437 1434 1431 1428 1424 1420 1416 1412 1408 1403 1396 1390 1385 1380 1374 1368 1362 1356 1350 1343 1338 1332 1327 1321 1316 1311 1306 1301 1296 1291 1286 1281 1277 1272 1268 1263 1259 1255 1252 1248 1246
1438 1436 1434 1431 1428 1425 1421 1418 1414 1409 1404 1400 1395 1389 1383 1377 1373 1367 1360 1353 1347 1343 1337 1331 1326 1320 1315 1309 1305 1300 1295 1290 1285 1280 1275 1271 1266 1262 1258 1254 1250 1247 1244 1242
1433 1431 1428 1425 1421 1417 1414 1411 1407 1401 1396 1392 1387 1381 1375 1369 1364 1359 1354 1348 1341 1336 1331 1325 1319 1314 1308 1304 1298 1293 1288 1283 1278 1274 1269 1265 1261 1257 1253 1249 1246 1243 1241 1239
1427 1424 1421 1418 1414 1409 1405 1402 1398 1393 1388 1383 1378 1374 1368 1363 1358 1352 1344 1340 1335 1330 1324 1318 1313 1307 1302 1297 1292 1287 1282 1277 1273 1268 1264 1260 1256 1252 1248 1245 1242 1239 1238 1236
1419 1415 1412 1409 1405 1400 1395 1391 1388 1384 1380 1375 1371 1367 1362 1355 1350 1346 1341 1334 1329 1324 1318 1312 1307 1301 1296 1291 1286 1281 1277 1272 1268 1263 1259 1255 1251 1248 1244 1241 1238 1236 1235 1234
1409 1406 1403 1399 1395 1391 1386 1382 1378 1374 1371 1366 1362 1359 1355 1350 1345 1338 1333 1327 1322 1317 1311 1305 1300 1295 1290 1285 1281 1276 1272 1267 1263 1259 1255 1251 1247 1243 1240 1237 1235 1234 1233 1233
1400 1397 1393 1390 1386 1382 1378 1374 1370 1366 1362 1358 1353 1350 1347 1342 1338 1332 1326 1321 1316 1311 1305 1299 1294 1289 1285 1280 1276 1271 1267 1262 1258 1254 1250 1246 1243 1240 1237 1235 1233 1233 1232 1232
1390 1387 1383 1379 1376 1373 1370 1366 1363 1359 1355 1351 1346 1342 1339 1334 1330 1325 1320 1315 1309 1304 1299 1294 1289 1285 1280 1276 1271 1267 1262 1258 1254 1250 1246 1243 1240 1237 1235 1233 1232 1232 1232 1232